BREEZE-M DEB, 35543

Orbit data source: Space-Track

BREEZE-M DEB, 35543 is space debris in HEO originally from a launch on Tue, 28 Feb 2006 UTC launched from the Tyuratam Missile And Space Complex (TTMTR). Debris objects in space refer to the collection of defunct objects orbiting the Earth. Examples of debris include non-operational satellites, rocket bodies, and fragments generated from explosions, collisions, or faulty payload assembly.

Loading next visibility...
Identifier
35543, 2006-006CL
Orbit
HEO
Country
Flag of CISCIS
Related business
Manufacturer
Khrunichev
Mission
Spacecraft
Bus & Motor
Unknown
Mass
Unknown
Launch date (UTC)
2006-02-28 (20 years ago)
Launch vehicle
Unknown
Launch site
Tyuratam Missile And Space Complex (TTMTR)
Object type
Payload
Rocket body
Debris
Shape & HBR
Unknown shape, 1.1 m
Radar Cross Section
Medium (>0.1 m² and <1 m²)

Expand to show TLE details & history
Last TLE update: 1 week ago

TLE from 1 week ago
0 BREEZE-M DEB
1 35543U 06006CL  26153.82968301  .00001337  00000-0  80054-2 0  9999
2 35543  52.7627  36.9842 5101298  49.4219 359.5538  5.03492370 39067
Epoch: 2026-06-02T19:54Z
TLE epoch observation values (Epoch: 2026-06-02T19:54:44.612Z)
Latitude
36.29886°
Longitude
-119.28036°
Altitude
662.525 km
Speed
9.253 km/s
True Right ascension
04h 42m 48s
True Declination
36° 07' 58"
Sunlit
Object was in daylight at epoch
Visualization orbit readout
Latitude
Unknown
Longitude
Unknown
Altitude
Unknown
Speed
Unknown
Apparent Right ascension
Unknown
Apparent Declination
Unknown
Sunlit
N/A
Visualization observer readout
Local Sidereal Time
12:50:58
Azimuth
Unknown
Elevation
Unknown
Doppler factor
Unknown
Orbital elements
Apogee altitude
15,336.952 km
Perigee altitude
666.009 km
Semi-major axis
14,379.618 km
Eccentricity
0.51013
Inclination
52.7627°
RAAN
36.9842°
Arg. of periapsis
49.4219°
True anomaly
358.40089°
Mean anomaly
359.5538°
Eccentric anomaly
359.08919°
Mean motion
1.2587 °/min
Orbital period
286.01 mins
BSTAR
0.0080054
Loading maneuver chart data...
Computing Atmospheric mass density...
Loading historical data...
Loading historical data...
Loading historical data...
Loading historical data...
Loading historical data...
Loading historical data...
Loading historical data...

Documentation

Showing up to 5 results
|